Weather History for Long Beach, CA

Change the Weather History Date:

Sunday, September 9, 2012

  Actual Average Record
Temperature  
Mean Temperature 82 °F 74 °F  
Max Temperature 93 °F 83 °F 98 °F (1990)
Min Temperature 70 °F 64 °F 56 °F (1964)
Degree Days  
Heating Degree Days 0 0  
Month to date heating degree days 0 0  
Since 1 July heating degree days 0 0  
Cooling Degree Days 17 9  
Month to date cooling degree days 123 81  
Year to date cooling degree days 911 849  
Growing Degree Days 32 (Base 50)    
Moisture  
Dew Point 63 °F    
Average Humidity 58    
Maximum Humidity 79    
Minimum Humidity 36    
Precipitation  
Precipitation 0.00 in 0.00 in 0.02 in (1976)
Month to date precipitation 0.01 0.01  
Year to date precipitation 4.45 8.51  
Since 1 July precipitation 0.04 0.07  
Sea Level Pressure  
Sea Level Pressure 29.85 in    
Wind  
Wind Speed 4 mph (WSW)    
Max Wind Speed 14 mph    
Max Gust Speed 17 mph    
Visibility 10 miles    
Events      
T = Trace of Precipitation, MM = Missing Value Source: NWS Daily Summary

Daily Weather History Graph

Daily Weather History Graph

Search for Another Location

Airport:

Trip Planner

Search our weather history database for the weather conditions in past years. The results will help you decide how hot, cold, wet, or windy it might be!

Date:

Astronomy

Sep. 09, 2012 Rise Set
Actual Time 6:32 AM PDT 7:06 PM PDT
Civil Twilight 6:07 AM PDT 7:31 PM PDT
Nautical Twilight 5:37 AM PDT 8:01 PM PDT
Astronomical Twilight 5:07 AM PDT 8:31 PM PDT
Moon 12:17 AM PDT (9/9) 2:43 PM PDT (9/9)
Length of Visible Light 13h 24m
Length of Day
12h 34m
Last Quarter, 38% of the Moon is Illuminated
Sep 9
Last Quarter
Sep 15
New
Sep 22
First Quarter
Sep 29
Full
Oct 8
Last Quarter

Hourly Weather History & Observations

Time (PDT) Temp. Heat Index Dew Point Humidity Pressure Visibility Wind Dir Wind Speed Gust Speed Precip Events Conditions
12:53 AM 73.9 °F - 60.1 °F 62% 29.87 in 10.0 mi NNW 4.6 mph - N/A   Clear
1:53 AM 73.9 °F - 60.1 °F 62% 29.86 in 10.0 mi NW 3.5 mph - N/A   Clear
2:53 AM 72.0 °F - 63.0 °F 73% 29.86 in 10.0 mi Calm Calm - N/A   Clear
3:53 AM 72.0 °F - 62.1 °F 71% 29.85 in 10.0 mi Calm Calm - N/A   Clear
4:53 AM 72.0 °F - 62.1 °F 71% 29.85 in 10.0 mi NNW 3.5 mph - N/A   Clear
5:53 AM 71.1 °F - 62.1 °F 73% 29.84 in 10.0 mi WNW 3.5 mph - N/A   Clear
6:53 AM 71.1 °F - 62.1 °F 73% 29.86 in 9.0 mi WNW 3.5 mph - N/A   Clear
7:53 AM 73.0 °F - 63.0 °F 71% 29.86 in 9.0 mi Calm Calm - N/A   Clear
8:53 AM 77.0 °F - 62.1 °F 60% 29.87 in 10.0 mi Calm Calm - N/A   Clear
9:53 AM 80.1 °F 81.1 °F 61.0 °F 52% 29.87 in 10.0 mi Calm Calm - N/A   Clear
10:53 AM 84.9 °F 85.0 °F 61.0 °F 44% 29.87 in 10.0 mi Calm Calm - N/A   Clear
11:53 AM 87.1 °F 87.5 °F 62.1 °F 43% 29.86 in 10.0 mi Calm Calm - N/A   Clear
12:53 PM 89.1 °F 89.0 °F 61.0 °F 39% 29.84 in 10.0 mi South 5.8 mph - N/A   Clear
1:53 PM 90.0 °F 90.0 °F 61.0 °F 38% 29.83 in 10.0 mi SSE 6.9 mph - N/A   Clear
2:53 PM 93.0 °F 93.8 °F 62.1 °F 36% 29.80 in 10.0 mi WNW 8.1 mph - N/A   Clear
3:53 PM 90.0 °F 89.7 °F 60.1 °F 37% 29.79 in 10.0 mi WNW 8.1 mph - N/A   Clear
4:53 PM 87.1 °F 87.0 °F 61.0 °F 41% 29.78 in 10.0 mi NW 11.5 mph - N/A   Clear
5:53 PM 82.9 °F 83.7 °F 62.1 °F 49% 29.79 in 10.0 mi West 6.9 mph - N/A   Scattered Clouds
6:53 PM 82.0 °F 82.4 °F 60.1 °F 47% 29.81 in 10.0 mi SSW 3.5 mph - N/A   Scattered Clouds
7:53 PM 72.0 °F - 64.9 °F 78% 29.86 in 10.0 mi SSE 6.9 mph - N/A   Clear
8:53 PM 73.0 °F - 66.0 °F 79% 29.89 in 10.0 mi South 3.5 mph - N/A   Scattered Clouds
9:26 PM 73.4 °F - 68.0 °F 83% 29.89 in 9.0 mi SSE 6.9 mph - N/A   Scattered Clouds
9:53 PM 73.0 °F - 66.9 °F 81% 29.90 in 9.0 mi SE 8.1 mph - N/A   Scattered Clouds
10:53 PM 73.0 °F - 66.0 °F 79% 29.90 in 9.0 mi SSE 5.8 mph - N/A   Clear
11:53 PM 73.0 °F - 66.9 °F 81% 29.92 in 9.0 mi ESE 5.8 mph - N/A   Clear